Voltar ao catálogo

STARLINK-37849

AtivoComunicaçõesSSO
NORAD 69499·PAYLOAD·🇺🇸 United States

Lançado Jun 11, 2026 de Vandenberg Space Force Base

Loading…

Próximas Passagens (próximas 24 horas)

TLE

AtualizadoSource: CelesTrak SupGP

Época: Sep 14, 2026, 21:14 UTC

1 69499C 26131X   26257.88520833  .00027384  00000+0  85023-3 0  2570
2 69499  97.2829 278.9096 0001308  89.5051 212.2768 15.33419271    12

Acompanhe STARLINK-37849 em tempo real com AllMySat

Download on the App Store